Regional Weather Roundup
Issued by NWS

Home | Current Version | Previous Version | Text Only | Print | Product List | Glossary On
Versions: 1 2 3 4 5 6 7 8 9 10 11 12 13 14 15 16 17 18 19 20 21 22 23 24 25 26 27
000
ASUS42 KFFC 051303
RWRGA
WEATHER ROUNDUP FOR GEORGIA
NATIONAL WEATHER SERVICE PEACHTREE CITY GA
900 AM EDT THU MAY 05 2016

NOTE: "FAIR" INDICATES FEW OR NO CLOUDS BELOW 12,000 FEET WITH NO
SIGNIFICANT WEATHER AND/OR OBSTRUCTIONS TO VISIBILITY.

* = USE WITH CAUTION. THE STATIONS MARKED WITH AN ASTERISK MAY NOT
REPORT WEATHER SUCH AS PRECIPITATION, FOG, OR THUNDER AND ARE NOT
QUALITY CONTROLLED BY NWS.

THE REMARK "TC" DENOTES TEMPERATURE READING IN DEGREES CELSIUS.

GAZ001>058-051400-
NORTH GEORGIA

CITY           SKY/WX    TMP DP  RH WIND       PRES   REMARKS
ATLANTA        MOSUNNY   53  44  71 NW16G22   29.79R
ATHENS         SUNNY     54  45  71 NW10G21   29.73
CHAMBLEE       MOSUNNY   52  45  77 NW15      29.78R
PEACHTREE CITY SUNNY     52  46  80 NW14      29.81R
ROME           SUNNY     52  43  71 VRB3      29.81R
WEST ATLANTA   SUNNY     52  43  71 NW15G22   29.79R
GAINESVILLE    SUNNY     51  41  68 W13       29.75R
CARTERSVILLE   SUNNY     51  47  86 VRB5      29.82R


CITY           SKY/WX    TMP DP  RH WIND       PRES   REMARKS
DALTON*        SUNNY     50  46  87 N5        29.81R
LAWRENCEVILLE* MOSUNNY   52  43  71 NW12      29.76R
MARIETTA       MOSUNNY   50  45  81 NW13G24   29.78R
KENNESAW*      MOSUNNY   50  41  71 NW12G17   29.81R
CANTON*        SUNNY     50  41  71 NW12G17   29.79R
BLAIRSVILLE*     N/A    N/A N/A N/A MISG      29.75S
$$

GAZ059>098-102>109-051400-
CENTRAL GEORGIA

CITY           SKY/WX    TMP DP  RH WIND       PRES   REMARKS
AUGUSTA-BUSH   SUNNY     59  46  62 NW14      29.68R
AUGUSTA-DANIEL SUNNY     58  44  60 VRB7G17   29.69R
COLUMBUS       SUNNY     57  45  64 NW13      29.83R
MACON          SUNNY     58  47  66 NW12G21   29.77R
ROBINS AFB     SUNNY     58  47  65 NW15G22   29.76R


CITY           SKY/WX    TMP DP  RH WIND       PRES   REMARKS
LAGRANGE*      SUNNY     56  50  81 NW13      29.83R
SYLVANIA*      SUNNY     60  52  75 NW9       29.69S
MILLEDGEVILLE* SUNNY     57  45  62 W12G20    29.75R
$$

GAZ099>101-110>166-051400-
SOUTH GEORGIA

CITY           SKY/WX    TMP DP  RH WIND       PRES   REMARKS
SAVANNAH       SUNNY     62  47  57 NW15      29.69R
VALDOSTA       SUNNY     64  51  62 VRB5      29.81R
ALMA           SUNNY     62  46  55 NW15G22   29.76R
ST SIMONS      SUNNY     63  46  54 W13G24    29.72R
FT STEWART     SUNNY     62  47  57 W14G24    29.69R
ALBANY         SUNNY     61  49  64 NW13      29.84R
HUNTER AFB     SUNNY     62  49  64 W16G22    29.66S
BRUNSWICK      SUNNY     70  52  52 W13G18    29.74R


CITY           SKY/WX    TMP DP  RH WIND       PRES   REMARKS
BAINBRIDGE*    SUNNY     63  54  72 NW10      29.84R
MOULTRIE*      SUNNY     61  52  72 NW7       29.82R
VIDALIA*       SUNNY     59  48  67 NW10G20   29.73S
WAYCROSS*      SUNNY     62  50  66 NW10G18   29.77R
DOUGLAS*       SUNNY     63  48  59 NW8       29.79R
$$




USA.gov is the U.S. government's official web portal to all federal, state and local government web resources and services.